Location: Unnamed Road
(35.9029°N, 51.9749°E)
Time: 10:20:07
(UTC+04:30)

Transit 2A - Visible Passes

Search period start: 06 June 2020 00:00
Search period end: 16 June 2020 00:00
Orbit: 593 x 966 km, 66.7° (Epoch: 05 June)

Date Brightness Start Highest point End Pass type
(mag) Time Alt. Az. Time Alt. Az. Time Alt. Az.
06 Jun 6.4 21:54:58 10° NNW 22:01:20 86° ENE 22:04:54 28° SSE visible
06 Jun 8.6 23:40:53 10° WNW 23:43:47 13° WSW 23:45:24 12° WSW visible
07 Jun 6.6 21:20:53 10° NNW 21:27:09 62° ENE 21:31:58 18° SE visible
07 Jun 8.2 23:05:24 10° WNW 23:09:54 21° WSW 23:12:28 16° SW visible
08 Jun 7.1 20:46:54 10° NNW 20:52:54 44° ENE 20:58:55 10° SE visible
08 Jun 7.8 22:30:34 10° NW 22:35:58 30° WSW 22:39:35 18° SSW visible
09 Jun 7.3 21:56:01 10° NW 22:01:58 43° WSW 22:06:46 15° S visible
10 Jun 6.9 21:21:40 10° NW 21:27:55 63° WSW 21:33:59 11° SSE visible
11 Jun 6.6 20:47:26 10° NNW 20:53:48 88° WSW 21:00:08 10° SSE visible
11 Jun 8.8 22:33:50 10° W 22:36:11 12° W 22:38:32 10° WSW visible
12 Jun 8.6 21:58:05 10° WNW 22:02:19 19° WSW 22:06:31 10° SW visible
13 Jun 8.2 21:23:08 10° NW 21:28:23 28° WSW 21:33:34 10° SSW visible
14 Jun 7.7 20:48:33 10° NW 20:54:25 40° WSW 21:00:11 10° S visible
